^^
Saratoga-Weather Station Historical Data
Daily Summary for August 25, 2020 Units:  English    Metric   Both
Daily Weekly Monthly Yearly Custom
  High: Low: Average:
Temperature: 81.1 °F 57.6 °F 69.1 °F
Dew Point: 61 °F 55.2 °F 57.9 °F
Humidity: 92% 44% 70%
Wind Speed: 8.1mph 0mph 1.3mph
Wind Gust: 12mph - -
Wind- - SW
Pressure: 29.9 in 29.8 in -
Precipitation: 0 in    
Historical Graphs
 
 
Tabular Data for August 25, 2020
Time Temperature Dew Point Pressure Wind Wind Speed Wind Gust Humidity Rainfall Rate (Hourly) solar
00:01 63.7 °F 57.7 °F 29.9 in Calm     81% 0 in 0 W/m2
00:06 63.5 °F 57.6 °F 29.9 in Calm     81% 0 in 0 W/m2
00:11 63.3 °F 57.4 °F 29.9 in Calm     81% 0 in 0 W/m2
00:16 63.3 °F 57.4 °F 29.9 in Calm     81% 0 in 0 W/m2
00:21 63.1 °F 57.6 °F 29.9 in Calm     82% 0 in 0 W/m2
00:26 63.1 °F 57.6 °F 29.9 in Calm     82% 0 in 0 W/m2
00:31 63.1 °F 57.6 °F 29.9 in Calm     82% 0 in 0 W/m2
00:36 63.1 °F 57.6 °F 29.9 in WNW 0.9 mph 2 mph 82% 0 in 0 W/m2
00:41 63.3 °F 57.7 °F 29.9 in WNW 0.9 mph 1 mph 82% 0 in 0 W/m2
00:46 63.3 °F 57.7 °F 29.9 in West 2 mph 2 mph 82% 0 in 0 W/m2
00:51 63.3 °F 57.4 °F 29.9 in West 0.9 mph 3 mph 81% 0 in 0 W/m2
00:56 63.5 °F 57.6 °F 29.9 in NW 0.9 mph 2 mph 81% 0 in 0 W/m2
01:01 63.7 °F 57.7 °F 29.9 in NW 2.9 mph 3 mph 81% 0 in 0 W/m2
01:06 63.9 °F 57.9 °F 29.9 in NW 0.9 mph 2 mph 81% 0 in 0 W/m2
01:11 63.9 °F 57.6 °F 29.9 in West 0.9 mph 2 mph 80% 0 in 0 W/m2
01:16 63.9 °F 57.6 °F 29.9 in West 0.9 mph 2 mph 80% 0 in 0 W/m2
01:21 63.9 °F 57.6 °F 29.9 in West 0.9 mph 1 mph 80% 0 in 0 W/m2
01:26 63.7 °F 57.4 °F 29.9 in Calm   2 mph 80% 0 in 0 W/m2
01:31 63.5 °F 57.6 °F 29.9 in West 2 mph 3 mph 81% 0 in 0 W/m2
01:36 63.3 °F 57.4 °F 29.9 in West 0.9 mph 3 mph 81% 0 in 0 W/m2
01:41 63.3 °F 57.7 °F 29.9 in West 2 mph 4 mph 82% 0 in 0 W/m2
01:46 63.3 °F 57.7 °F 29.9 in West 0.9 mph 2 mph 82% 0 in 0 W/m2
01:51 63.3 °F 57.7 °F 29.9 in West 0.9 mph 4 mph 82% 0 in 0 W/m2
01:56 63.3 °F 57.4 °F 29.9 in Calm   1 mph 81% 0 in 0 W/m2
02:01 63.3 °F 57.4 °F 29.9 in Calm     81% 0 in 0 W/m2
02:06 63.1 °F 57.2 °F 29.9 in Calm     81% 0 in 0 W/m2
02:11 63 °F 57 °F 29.9 in Calm     81% 0 in 0 W/m2
02:16 63 °F 57.4 °F 29.9 in Calm     82% 0 in 0 W/m2
02:21 62.6 °F 57 °F 29.9 in Calm     82% 0 in 0 W/m2
02:26 62.2 °F 56.7 °F 29.9 in Calm     82% 0 in 0 W/m2
02:31 62.1 °F 56.8 °F 29.9 in Calm     83% 0 in 0 W/m2
02:36 61.9 °F 56.7 °F 29.9 in Calm     83% 0 in 0 W/m2
02:41 61.5 °F 56.7 °F 29.9 in Calm     84% 0 in 0 W/m2
02:46 61.2 °F 56.3 °F 29.9 in Calm     84% 0 in 0 W/m2
02:51 61 °F 56.5 °F 29.9 in Calm     85% 0 in 0 W/m2
02:56 60.6 °F 56.1 °F 29.9 in Calm     85% 0 in 0 W/m2
03:01 60.4 °F 56.3 °F 29.9 in Calm     86% 0 in 0 W/m2
03:06 60.3 °F 56.1 °F 29.9 in Calm     86% 0 in 0 W/m2
03:11 60.1 °F 56.1 °F 29.9 in Calm     87% 0 in 0 W/m2
03:16 59.7 °F 55.8 °F 29.9 in Calm     87% 0 in 0 W/m2
03:21 59.7 °F 55.8 °F 29.9 in Calm     87% 0 in 0 W/m2
03:26 59.5 °F 55.9 °F 29.9 in Calm     88% 0 in 0 W/m2
03:31 59.4 °F 55.8 °F 29.9 in Calm     88% 0 in 0 W/m2
03:36 59.2 °F 55.6 °F 29.9 in Calm     88% 0 in 0 W/m2
03:41 59 °F 55.8 °F 29.9 in Calm     89% 0 in 0 W/m2
03:46 58.8 °F 55.6 °F 29.9 in Calm   1 mph 89% 0 in 0 W/m2
03:51 58.8 °F 55.6 °F 29.9 in Calm     89% 0 in 0 W/m2
03:56 58.6 °F 55.4 °F 29.9 in Calm     89% 0 in 0 W/m2
04:06 58.5 °F 55.6 °F 29.9 in Calm     90% 0 in 0 W/m2
04:11 58.3 °F 55.4 °F 29.9 in Calm     90% 0 in 0 W/m2
04:16 58.1 °F 55.2 °F 29.9 in Calm     90% 0 in 0 W/m2
04:21 57.9 °F 55.2 °F 29.9 in Calm     91% 0 in 0 W/m2
04:26 57.9 °F 55.2 °F 29.9 in Calm     91% 0 in 0 W/m2
04:31 57.7 °F 55.2 °F 29.9 in Calm     91% 0 in 0 W/m2
04:36 57.7 °F 55.2 °F 29.9 in WNW 2 mph 2 mph 91% 0 in 0 W/m2
04:41 57.7 °F 55.2 °F 29.9 in Calm     91% 0 in 0 W/m2
04:46 57.7 °F 55.4 °F 29.9 in Calm     92% 0 in 0 W/m2
04:51 57.6 °F 55.2 °F 29.9 in Calm     92% 0 in 0 W/m2
04:56 57.6 °F 55.2 °F 29.9 in Calm     92% 0 in 0 W/m2
05:01 57.6 °F 55.2 °F 29.9 in Calm     92% 0 in 0 W/m2
05:06 57.7 °F 55.4 °F 29.9 in Calm     92% 0 in 0 W/m2
05:11 57.7 °F 55.4 °F 29.9 in Calm     92% 0 in 0 W/m2
05:16 57.7 °F 55.4 °F 29.9 in Calm   2 mph 92% 0 in 0 W/m2
05:21 57.9 °F 55.6 °F 29.9 in Calm     92% 0 in 0 W/m2
05:26 57.9 °F 55.6 °F 29.9 in Calm   2 mph 92% 0 in 0 W/m2
05:31 57.9 °F 55.2 °F 29.9 in Calm     91% 0 in 0 W/m2
05:36 58.1 °F 55.8 °F 29.9 in Calm     92% 0 in 0 W/m2
05:41 58.1 °F 55.4 °F 29.9 in Calm     91% 0 in 0 W/m2
05:46 58.3 °F 55.6 °F 29.9 in Calm     91% 0 in 0 W/m2
05:51 58.3 °F 55.9 °F 29.9 in Calm     92% 0 in 0 W/m2
05:56 58.5 °F 55.8 °F 29.9 in Calm     91% 0 in 0 W/m2
06:01 58.6 °F 56.3 °F 29.9 in Calm     92% 0 in 0 W/m2
06:06 58.8 °F 56.1 °F 29.9 in Calm     91% 0 in 5 W/m2
06:11 59 °F 56.3 °F 29.9 in Calm   1 mph 91% 0 in 9 W/m2
06:16 59.4 °F 56.5 °F 29.9 in Calm     90% 0 in 11 W/m2
06:21 59.4 °F 56.5 °F 29.9 in Calm     90% 0 in 12 W/m2
06:26 59.5 °F 56.7 °F 29.9 in Calm     90% 0 in 14 W/m2
06:31 59.5 °F 56.7 °F 29.9 in Calm     90% 0 in 16 W/m2
06:36 59.7 °F 56.8 °F 29.9 in Calm     90% 0 in 18 W/m2
06:41 59.9 °F 56.7 °F 29.9 in Calm     89% 0 in 19 W/m2
06:46 60.1 °F 56.8 °F 29.9 in Calm     89% 0 in 25 W/m2
06:51 60.3 °F 57 °F 29.9 in Calm   1 mph 89% 0 in 30 W/m2
06:56 60.4 °F 56.8 °F 29.9 in Calm   1 mph 88% 0 in 32 W/m2
07:01 60.6 °F 56.7 °F 29.9 in Calm   1 mph 87% 0 in 33 W/m2
07:06 61 °F 57 °F 29.9 in WNW 0.9 mph 2 mph 87% 0 in 32 W/m2
07:11 61 °F 56.8 °F 29.9 in Calm   1 mph 86% 0 in 32 W/m2
07:16 61.2 °F 57 °F 29.9 in Calm     86% 0 in 35 W/m2
07:21 61.2 °F 57 °F 29.9 in Calm     86% 0 in 39 W/m2
07:26 61.3 °F 57.2 °F 29.9 in Calm     86% 0 in 39 W/m2
07:31 61.3 °F 57.2 °F 29.9 in Calm   1 mph 86% 0 in 47 W/m2
07:36 61.5 °F 57.4 °F 29.9 in Calm     86% 0 in 47 W/m2
07:41 61.5 °F 57.4 °F 29.9 in Calm     86% 0 in 39 W/m2
07:46 61.9 °F 57.6 °F 29.9 in NNW 2 mph 2 mph 86% 0 in 35 W/m2
07:51 61.9 °F 57.4 °F 29.9 in Calm     85% 0 in 49 W/m2
07:56 62.1 °F 57.6 °F 29.9 in Calm     85% 0 in 54 W/m2
08:01 62.2 °F 57.7 °F 29.9 in Calm     85% 0 in 51 W/m2
08:06 62.4 °F 57.9 °F 29.9 in Calm     85% 0 in 67 W/m2
08:11 62.6 °F 58.1 °F 29.9 in Calm     85% 0 in 74 W/m2
08:16 63 °F 58.1 °F 29.9 in Calm   1 mph 84% 0 in 77 W/m2
08:21 63.1 °F 58.3 °F 29.9 in Calm     84% 0 in 70 W/m2
08:26 63.3 °F 58.1 °F 29.9 in Calm     83% 0 in 76 W/m2
08:31 63.7 °F 58.5 °F 29.9 in NNW 0.9 mph 1 mph 83% 0 in 105 W/m2
08:37 63.9 °F 58.3 °F 29.9 in Calm   1 mph 82% 0 in 109 W/m2
08:42 64 °F 58.5 °F 29.9 in Calm     82% 0 in 109 W/m2
08:47 64.4 °F 58.5 °F 29.9 in Calm     81% 0 in 130 W/m2
08:52 64.8 °F 58.8 °F 29.9 in Calm   2 mph 81% 0 in 120 W/m2
08:57 64.9 °F 58.6 °F 29.9 in North 0.9 mph 2 mph 80% 0 in 120 W/m2
09:02 65.1 °F 58.8 °F 29.9 in Calm     80% 0 in 144 W/m2
09:07 65.5 °F 59.2 °F 29.9 in North 2 mph 2 mph 80% 0 in 176 W/m2
09:12 65.8 °F 59.2 °F 29.9 in Calm   1 mph 79% 0 in 178 W/m2
09:17 66.4 °F 59.7 °F 29.9 in ENE 2 mph 3 mph 79% 0 in 199 W/m2
09:23 66.6 °F 59.9 °F 29.9 in East 2 mph 4 mph 79% 0 in 257 W/m2
09:28 66.9 °F 59.9 °F 29.9 in East 2 mph 3 mph 78% 0 in 253 W/m2
09:33 67.3 °F 59.9 °F 29.9 in NE 2.9 mph 3 mph 77% 0 in 246 W/m2
09:38 67.3 °F 59.9 °F 29.9 in ENE 0.9 mph 2 mph 77% 0 in 234 W/m2
09:43 67.5 °F 60.1 °F 29.9 in East 2 mph 3 mph 77% 0 in 225 W/m2
09:48 67.6 °F 60.3 °F 29.9 in ESE 0.9 mph 2 mph 77% 0 in 229 W/m2
09:53 67.8 °F 59.9 °F 29.9 in East 0.9 mph 2 mph 76% 0 in 236 W/m2
09:58 68.4 °F 60.1 °F 29.9 in ENE 2 mph 3 mph 75% 0 in 237 W/m2
10:03 68.5 °F 60.3 °F 29.9 in Calm   2 mph 75% 0 in 248 W/m2
10:08 68.7 °F 60.1 °F 29.9 in ESE 0.9 mph 3 mph 74% 0 in 241 W/m2
10:13 69.1 °F 60.4 °F 29.9 in ESE 2 mph 3 mph 74% 0 in 292 W/m2
10:18 69.4 °F 60.4 °F 29.9 in East 0.9 mph 2 mph 73% 0 in 313 W/m2
10:23 70 °F 61 °F 29.9 in East 0.9 mph 3 mph 73% 0 in 302 W/m2
10:28 70.3 °F 60.4 °F 29.9 in NE 2.9 mph 3 mph 71% 0 in 322 W/m2
10:33 70.5 °F 60.6 °F 29.9 in SE 0.9 mph 1 mph 71% 0 in 309 W/m2
10:38 70.9 °F 60.6 °F 29.9 in ENE 0.9 mph 6 mph 70% 0 in 309 W/m2
10:43 71.2 °F 60.1 °F 29.9 in NNE 2 mph 3 mph 68% 0 in 352 W/m2
10:48 71.6 °F 60.1 °F 29.9 in West 2 mph 3 mph 67% 0 in 374 W/m2
10:53 72 °F 59.9 °F 29.9 in NW 0.9 mph 1 mph 66% 0 in 387 W/m2
10:58 72.3 °F 60.3 °F 29.9 in East 0.9 mph 2 mph 66% 0 in 497 W/m2
11:03 73.2 °F 60.3 °F 29.9 in SE 4 mph 7 mph 64% 0 in 654 W/m2
11:08 73.6 °F 60.6 °F 29.9 in WSW 2 mph 2 mph 64% 0 in 425 W/m2
11:13 73.9 °F 60.6 °F 29.9 in WNW 2.9 mph 7 mph 63% 0 in 464 W/m2
11:18 73.8 °F 60.4 °F 29.9 in West 2 mph 7 mph 63% 0 in 568 W/m2
11:23 73.9 °F 61 °F 29.9 in Calm   3 mph 64% 0 in 687 W/m2
11:28 74.5 °F 60.1 °F 29.9 in NE 2.9 mph 3 mph 61% 0 in 596 W/m2
11:33 74.7 °F 60.8 °F 29.9 in WNW 4 mph 4 mph 62% 0 in 624 W/m2
11:38 74.3 °F 59.9 °F 29.9 in NNW 0.9 mph 2 mph 61% 0 in 452 W/m2
11:43 74.5 °F 60.1 °F 29.9 in NNW 2.9 mph 4 mph 61% 0 in 408 W/m2
11:48 74.3 °F 59.9 °F 29.9 in East 4 mph 4 mph 61% 0 in 380 W/m2
11:53 74.3 °F 59.5 °F 29.9 in NW 2 mph 2 mph 60% 0 in 408 W/m2
11:58 74.7 °F 59.4 °F 29.9 in Calm   2 mph 59% 0 in 278 W/m2
12:03 74.7 °F 59.9 °F 29.9 in Calm   2 mph 60% 0 in 258 W/m2
12:08 74.8 °F 60.1 °F 29.9 in WSW 0.9 mph 3 mph 60% 0 in 418 W/m2
12:13 75.6 °F 59.7 °F 29.9 in West 6 mph 7 mph 58% 0 in 1081 W/m2
12:18 75.6 °F 59.7 °F 29.9 in ESE 2 mph 7 mph 58% 0 in 334 W/m2
12:23 75.6 °F 59.2 °F 29.9 in NE 0.9 mph 2 mph 57% 0 in 206 W/m2
12:28 75.4 °F 59 °F 29.9 in East 2.9 mph 7 mph 57% 0 in 179 W/m2
12:33 75.4 °F 59 °F 29.9 in WNW 0.9 mph 2 mph 57% 0 in 188 W/m2
12:38 75 °F 59.2 °F 29.9 in Calm   1 mph 58% 0 in 174 W/m2
12:43 75 °F 58.8 °F 29.9 in West 0.9 mph 7 mph 57% 0 in 209 W/m2
12:48 75 °F 58.8 °F 29.9 in ENE 2 mph 3 mph 57% 0 in 288 W/m2
12:53 75 °F 59.2 °F 29.9 in West 0.9 mph 2 mph 58% 0 in 425 W/m2
12:58 75.6 °F 58.8 °F 29.9 in WNW 4.9 mph 8 mph 56% 0 in 613 W/m2
13:03 75.9 °F 59.5 °F 29.9 in SW 2 mph 2 mph 57% 0 in 677 W/m2
13:08 75.9 °F 59.2 °F 29.9 in West 2 mph 10 mph 56% 0 in 272 W/m2
13:13 75.7 °F 59 °F 29.9 in WNW 2 mph 5 mph 56% 0 in 313 W/m2
13:18 75.7 °F 59.4 °F 29.9 in WSW 2 mph 10 mph 57% 0 in 427 W/m2
13:23 76.3 °F 59.9 °F 29.9 in NW 4 mph 4 mph 57% 0 in 979 W/m2
13:28 76.8 °F 59 °F 29.9 in NW 6 mph 9 mph 54% 0 in 715 W/m2
13:33 76.8 °F 59 °F 29.9 in ESE 0.9 mph 7 mph 54% 0 in 362 W/m2
13:38 77.5 °F 59.5 °F 29.9 in Calm   2 mph 54% 0 in 942 W/m2
13:43 78.1 °F 59 °F 29.9 in NE 0.9 mph 8 mph 52% 0 in 255 W/m2
13:48 78.1 °F 59 °F 29.9 in WNW 2 mph 9 mph 52% 0 in 258 W/m2
13:53 77.9 °F 58.8 °F 29.9 in West 0.9 mph 3 mph 52% 0 in 283 W/m2
13:58 77.7 °F 58.1 °F 29.9 in East 2 mph 9 mph 51% 0 in 243 W/m2
14:03 77.7 °F 58.1 °F 29.9 in WNW 2 mph 4 mph 51% 0 in 258 W/m2
14:08 77.7 °F 58.1 °F 29.9 in WSW 2.9 mph 9 mph 51% 0 in 255 W/m2
14:13 77.5 °F 57.9 °F 29.9 in SSW 2.9 mph 3 mph 51% 0 in 225 W/m2
14:18 77.5 °F 57.9 °F 29.9 in NNW 8.1 mph 8 mph 51% 0 in 227 W/m2
14:23 77.5 °F 57.9 °F 29.9 in WNW 0.9 mph 1 mph 51% 0 in 288 W/m2
14:28 77.7 °F 57.6 °F 29.9 in West 4 mph 6 mph 50% 0 in 380 W/m2
14:33 77.9 °F 57.7 °F 29.9 in SSE 0.9 mph 4 mph 50% 0 in 464 W/m2
14:38 78.8 °F 58.6 °F 29.9 in WNW 2.9 mph 3 mph 50% 0 in 564 W/m2
14:43 79.9 °F 58.5 °F 29.9 in SW 4.9 mph 6 mph 48% 0 in 633 W/m2
14:48 80.6 °F 57.9 °F 29.9 in West 6.9 mph 10 mph 46% 0 in 696 W/m2
14:53 80.4 °F 57.7 °F 29.9 in NW 2.9 mph 7 mph 46% 0 in 603 W/m2
14:58 80.4 °F 57.7 °F 29.9 in West 6.9 mph 10 mph 46% 0 in 461 W/m2
15:03 80.4 °F 56.5 °F 29.9 in WSW 6 mph 7 mph 44% 0 in 466 W/m2
15:09 80.4 °F 57.2 °F 29.9 in WNW 2 mph 5 mph 45% 0 in 429 W/m2
15:14 80.1 °F 56.8 °F 29.9 in WSW 2 mph 8 mph 45% 0 in 541 W/m2
15:19 80.1 °F 56.8 °F 29.9 in SSE 0.9 mph 1 mph 45% 0 in 454 W/m2
15:24 80.2 °F 57 °F 29.9 in WNW 4 mph 10 mph 45% 0 in 438 W/m2
15:29 80.1 °F 57.4 °F 29.9 in NNW 4.9 mph 9 mph 46% 0 in 466 W/m2
15:34 79.9 °F 57.9 °F 29.9 in WNW 2 mph 11 mph 47% 0 in 443 W/m2
15:39 80.1 °F 58.6 °F 29.9 in North 2 mph 3 mph 48% 0 in 454 W/m2
15:44 80.4 °F 57.7 °F 29.9 in WNW 4.9 mph 9 mph 46% 0 in 478 W/m2
15:49 80.2 °F 58.1 °F 29.9 in NW 4.9 mph 6 mph 47% 0 in 452 W/m2
15:54 80.2 °F 57.6 °F 29.9 in NW 4.9 mph 9 mph 46% 0 in 445 W/m2
15:59 80.2 °F 58.1 °F 29.9 in NW 6 mph 12 mph 47% 0 in 455 W/m2
16:04 80.2 °F 57.6 °F 29.9 in West 4 mph 6 mph 46% 0 in 392 W/m2
16:09 80.1 °F 58.1 °F 29.9 in West 2 mph 6 mph 47% 0 in 381 W/m2
16:14 80.1 °F 57.4 °F 29.9 in Calm   7 mph 46% 0 in 392 W/m2
16:19 80.2 °F 58.1 °F 29.8 in WNW 2.9 mph 4 mph 47% 0 in 404 W/m2
16:25 80.4 °F 58.3 °F 29.9 in WNW 0.9 mph 2 mph 47% 0 in 408 W/m2
16:30 80.8 °F 57.4 °F 29.8 in WNW 4 mph 4 mph 45% 0 in 330 W/m2
16:40 80.2 °F 58.1 °F 29.8 in East 2 mph 3 mph 47% 0 in 278 W/m2
16:45 80.1 °F 58.6 °F 29.8 in WNW 2.9 mph 3 mph 48% 0 in 269 W/m2
16:50 80.1 °F 58.1 °F 29.8 in SW 2.9 mph 5 mph 47% 0 in 248 W/m2
16:55 80.1 °F 58.6 °F 29.8 in WSW 2 mph 2 mph 48% 0 in 223 W/m2
17:00 80.1 °F 57.4 °F 29.8 in WNW 2 mph 8 mph 46% 0 in 195 W/m2
17:05 79.9 °F 57.9 °F 29.8 in NW 0.9 mph 4 mph 47% 0 in 192 W/m2
17:10 79.7 °F 57.7 °F 29.8 in NW 0.9 mph 2 mph 47% 0 in 183 W/m2
17:15 79.7 °F 57 °F 29.8 in West 4 mph 6 mph 46% 0 in 148 W/m2
17:20 79.5 °F 57.6 °F 29.8 in East 0.9 mph 1 mph 47% 0 in 128 W/m2
17:26 79.5 °F 57.6 °F 29.8 in NW 2.9 mph 4 mph 47% 0 in 134 W/m2
17:31 79.5 °F 57.6 °F 29.8 in WNW 0.9 mph 2 mph 47% 0 in 142 W/m2
17:36 79.5 °F 57.6 °F 29.8 in Calm   1 mph 47% 0 in 160 W/m2
17:41 79.5 °F 57.6 °F 29.8 in West 8 mph 8 mph 47% 0 in 162 W/m2
17:46 79.3 °F 57.9 °F 29.8 in West 2 mph 6 mph 48% 0 in 160 W/m2
17:51 79.2 °F 57.7 °F 29.8 in Calm   4 mph 48% 0 in 185 W/m2
17:56 79.3 °F 57.9 °F 29.8 in WNW 2.9 mph 4 mph 48% 0 in 209 W/m2
18:01 79.5 °F 58.1 °F 29.8 in East 2.9 mph 3 mph 48% 0 in 185 W/m2
18:06 79.5 °F 58.1 °F 29.8 in NNE 0.9 mph 2 mph 48% 0 in 160 W/m2
18:11 79.3 °F 57.9 °F 29.8 in West 2.9 mph 4 mph 48% 0 in 160 W/m2
18:16 79.3 °F 57.9 °F 29.8 in West 2 mph 2 mph 48% 0 in 171 W/m2
18:21 79.3 °F 58.5 °F 29.8 in Calm   1 mph 49% 0 in 220 W/m2
18:26 79.5 °F 58.1 °F 29.8 in WNW 2 mph 3 mph 48% 0 in 221 W/m2
18:31 79.7 °F 58.3 °F 29.8 in Calm   1 mph 48% 0 in 207 W/m2
18:36 79.9 °F 57.9 °F 29.8 in NNW 0.9 mph 4 mph 47% 0 in 218 W/m2
18:41 79.9 °F 58.5 °F 29.8 in West 0.9 mph 6 mph 48% 0 in 353 W/m2
18:46 80.2 °F 58.1 °F 29.8 in NNW 0.9 mph 2 mph 47% 0 in 306 W/m2
18:51 80.2 °F 58.8 °F 29.8 in SW 2 mph 3 mph 48% 0 in 278 W/m2
18:56 80.2 °F 57.6 °F 29.8 in WNW 0.9 mph 4 mph 46% 0 in 192 W/m2
19:01 80.4 °F 57.7 °F 29.8 in Calm   2 mph 46% 0 in 316 W/m2
19:06 81 °F 58.8 °F 29.8 in Calm   2 mph 47% 0 in 294 W/m2
19:11 81.1 °F 57.7 °F 29.8 in West 2 mph 4 mph 45% 0 in 169 W/m2
19:16 81.1 °F 57.7 °F 29.8 in WNW 2.9 mph 5 mph 45% 0 in 135 W/m2
Juneau County Weather
Compliments of Weather Underground - 4 mb